ROMMA est une association bénévole à but non lucratif. Votre soutien est indispensable : ADHERER à ROMMA ou FAIRE un DON

Lyon - (69, Rhône)

Plaine lyonnaise (169 m)   Longitude: 04° 49' 55" E   Latitude: 45° 43' 50" N Station partenaire n°124
 

Détail journalier du     <<     >>

Température Precipitation Humidité Pression Vent Dir Rafale Dir. rafale Ensol.
Heure (°C) (mm) (%) (hPa) (km/h) (km/h) (min)
01:00 16.108810095N14N0
02:00 15.808910093N8N0
03:00 14.809010093N6N0
04:00 14.109310081N5N0
05:00 14.109210083N8SO0
06:00 13.709210083N6N0
07:00 13.709210082N8N0
08:00 14.10.59310092N8N0
09:00 14.60.39410101---8N10
10:00 14.719210113N14N0
11:00 16.908010115NO18SO50
12:00 18.207210127NO19NO30
13:00 18.806810129N29NO10
14:00 19.1068101210NO27NO20
15:00 19.606510129N27N10
16:00 18.4078101310N27N10
17:00 19.206710137N24N0
18:00 18.3067101413N34N30
19:00 16.7070101512N31N0
20:00 16.3066101610NO27NO0
21:00 16.006910177NO24NO0
22:00 15.606610188N27N0
23:00 15.106410199N24N0
minuit 14.506810198N24N0

Graphique du 02-10-2019

 

Serveur OMMA